Regional Weather Roundup
Issued by NWS

Home | Current Version | Previous Version | Graphics & Text | Print | Product List | Glossary On
Versions: 1 2 3 4 5 6 7 8 9 10 11 12 13 14 15 16 17 18 19 20 21 22 23 24
000
ASUS45 KCYS 230110
RWRWY

WYOMING REGIONAL WEATHER ROUNDUP
NATIONAL WEATHER SERVICE CHEYENNE WY
700 PM MDT WED OCT 22 2014

NOTE:  "FAIR" INDICATES FEW OR NO CLOUDS BELOW 12,000 FEET
WITH NO SIGNIFICANT WEATHER AND/OR OBSTRUCTIONS TO VISIBILITY.

WYZ001-230200-
YELLOWSTONE NATIONAL PARK

CITY           SKY/WX    TMP DP  RH WIND       PRES   REMARKS
LK YELLOWSTONE   N/A     32  25  75 CALM      30.24R
W YELLOWSTONE  NOT AVBL

$$
WYZ002>013-054>058-071-098>099-230200-
NORTHERN WYOMING

CITY           SKY/WX    TMP DP  RH WIND       PRES   REMARKS
JACKSON        CLEAR     43  25  49 CALM      30.19R
CODY           CLEAR     55  21  26 W16G24    30.04R
GREYBULL       CLEAR     51  22  31 SE3       30.01S
WORLAND        CLEAR     46  19  34 E10       30.01S
SHERIDAN       CLEAR     43  29  57 W5        29.99R
BUFFALO        CLEAR     43  26  51 SW6       30.03R
GILLETTE         N/A     44  26  49 CALM      30.00R
HULETT         FAIR      52  27  37 S6        30.02
NEWCASTLE      FAIR      46  27  46 NE5       30.03

$$
WYZ014>020-022>026-101>103-230200-
CENTRAL WYOMING

CITY           SKY/WX    TMP DP  RH WIND       PRES   REMARKS
BIG PINEY      PTCLDY    45  19  35 W3        30.21R
PINEDALE       PTCLDY    43  21  42 CALM      30.22R
DUBOIS         FAIR      41  18  38 NW10      30.16R
LANDER         PTCLDY    49  24  37 CALM      30.06R
RIVERTON       PTCLDY    51  16  24 W6        30.07S
CASPER         CLEAR     45  15  30 SW10      30.08R
DOUGLAS        CLEAR     51  14  22 W10       30.08R

$$
WYZ021-027>030-104>119-230200-
SOUTHERN WYOMING

CITY           SKY/WX    TMP DP  RH WIND       PRES   REMARKS
EVANSTON       PTCLDY    45  19  35 W10       30.23R
KEMMERER       PTCLDY    41  18  38 W8        30.23R
FORT BRIDGER   FAIR      47  19  32 W12       30.24R
ROCK SPRINGS   PTCLDY    45  20  36 NW7       30.21R
DIXON          FAIR      48  36  62 E3        30.24S
RAWLINS        CLEAR     45  18  34 SW6       30.20R
SARATOGA       FAIR      41  28  60 S8        30.22S
LARAMIE        CLEAR     43  23  45 W12       30.19R
CHEYENNE       PTCLDY    52  28  39 SW7       30.15R
TORRINGTON     CLEAR     56  19  23 W8        30.05R
PINE BLUFFS    MOCLDY    52  45  76 CALM      30.12R

$$



USA.gov is the U.S. government's official web portal to all federal, state and local government web resources and services.